Location: ??????
(55.7018°N, 39.1172°E)
Time: 04:39:39
(UTC+00:00)

Daily predictions for brighter satellites

Satellite Brightness Start Highest point End
(mag) Time Altitude Azimuth Time Altitude Azimuth Time Altitude Azimuth
ATLAS 3B R/B 3.9 00:39:56 43° NNE 00:39:56 43° NNE 00:45:49 10° ENE
Cosmos 2360 Rocket 4.2 00:45:55 23° NE 00:45:55 23° NE 00:49:09 10° E
Cosmos 2333 Rocket 4.1 00:46:55 27° ENE 00:46:55 27° ENE 00:50:17 10° E
ACS3 Solar Sail 3.8 00:43:10 10° NNE 00:44:40 19° NNE 00:44:40 19° NNE
ADEOS Rocket 4.1 00:48:05 10° NNE 00:53:31 51° NNE 00:53:31 51° NNE
Cosmos 2219 Rocket 4.1 01:02:24 24° NE 01:02:24 24° NE 01:06:30 10° E
Cosmos 2322 Rocket 3.7 01:08:47 32° NE 01:08:47 32° NE 01:13:15 10° E
NOSS 3-1 (A) 3.9 01:22:28 69° NE 01:22:28 69° NE 01:30:20 10° ESE
Cosmos 1833 Rocket 4.0 01:31:47 32° NNE 01:31:47 32° NNE 01:34:45 10° NNE
SL-16 R/B 2.8 01:37:18 54° E 01:37:18 54° E 01:42:02 10° SE
USA 234 3.1 01:34:51 10° ENE 01:41:16 85° NE 01:41:16 85° NE
Cosmos 2082 Rocket 3.0 01:41:15 43° SE 01:42:00 46° ESE 01:47:20 10° NE
USA 229 4.3 01:45:16 46° N 01:46:03 48° N 01:53:25 10° E
USA 229 DEB 4.3 01:45:21 46° N 01:46:09 48° N 01:53:31 10° E
ATLAS 5 CENTAUR R/B 4.0 01:51:42 12° NE 01:51:42 12° NE 01:52:05 10° NE
SeaSat 1 3.6 01:45:19 10° NE 01:48:14 37° NE 01:48:14 37° NE
ADEOS II 4.5 01:48:04 10° N 01:48:21 11° N 01:48:21 11° N
CZ-2C R/B 3.8 01:52:07 10° NNE 01:54:51 32° NNE 01:54:51 32° NNE
Cosmos 2278 3.7 02:00:28 74° NE 02:00:30 74° NE 02:06:09 10° SE
NOSS 3-1 (C) 3.9 02:05:08 61° SW 02:05:14 61° SW 02:13:34 10° SSE
Timation 1 Rocket 4.2 02:12:54 74° SW 02:13:28 90° S 02:19:30 10° NE
SL-16 R/B 4.1 02:14:24 17° N 02:14:53 17° N 02:18:34 10° NE
ARGOS 4.1 02:13:48 10° N 02:16:55 34° N 02:16:55 34° N
SL-4 R/B 4.0 02:21:07 19° SE 02:21:07 19° SE 02:22:13 10° ESE
COSMOS 2455 4.1 02:23:49 27° SSW 02:23:49 27° SSW 02:26:50 10° S
Cosmos 841 Rocket 3.9 02:20:17 23° S 02:23:31 63° ESE 02:28:44 10° NNE
SJ-11-01 4.4 02:20:35 10° NNE 02:25:19 74° ESE 02:28:43 19° S
Cosmos 2360 Rocket 2.3 02:27:40 46° NNW 02:29:22 74° NE 02:35:00 10° SE
Cosmos 2333 Rocket 2.1 02:28:57 60° NW 02:30:05 84° WSW 02:35:51 10° SSE
ATLAS 3B R/B 3.4 02:27:10 35° NW 02:30:24 55° NNE 02:37:59 10° E
ACS3 Solar Sail 3.4 02:26:39 10° N 02:28:40 18° NNW 02:28:40 18° NNW
Cosmos 1428 Rocket 4.5 02:29:04 10° S 02:35:18 84° E 02:41:39 10° NNE
Meteor 2-2 Rocket 4.4 02:30:59 17° N 02:35:26 75° ENE 02:41:12 10° SSE
Nadezhda 4 Rocket 3.9 02:29:36 10° SSW 02:35:55 85° W 02:42:13 10° N
NOSS 3-4 (A) 3.5 02:35:38 49° NW 02:36:13 51° NNW 02:42:31 10° NE
NOSS 3-4 (C) 3.5 02:35:47 49° NW 02:36:24 52° NNW 02:42:41 10° NE
H-2A R/B 4.3 02:33:30 10° N 02:33:38 11° N 02:33:38 11° N
Cosmos 2237 Rocket 3.9 02:36:30 17° N 02:39:04 23° NNE 02:43:31 10° ENE
ADEOS Rocket 4.2 02:33:58 10° N 02:40:26 34° NW 02:40:26 34° NW
DNEPR-1 R/B 4.3 02:45:38 37° N 02:45:38 37° N 02:48:57 10° NE
Cosmos 2219 Rocket 2.5 02:44:07 30° NNW 02:46:55 65° NE 02:52:32 10° SE
Cosmos 1892 Rocket 3.6 02:43:48 10° S 02:48:10 76° E 02:52:36 10° NNE
Cosmos-2242 2.9 02:47:43 50° N 02:48:47 84° ENE 02:53:00 10° SSE
Meteor 2-20 4.3 02:43:08 10° NNW 02:49:16 76° W 02:55:19 10° S
Cosmos 2195 Rocket 4.5 02:44:07 10° S 02:50:24 87° E 02:56:47 10° NNE
IRS-1D 3.4 02:46:12 10° NNE 02:51:13 85° ESE 02:56:18 10° SSW
Cosmos 2322 Rocket 2.1 02:50:37 41° NW 02:52:42 78° WSW 02:58:23 10° SSE
Cosmos 468 Rocket 4.1 02:53:42 50° WNW 02:53:56 51° NW 02:59:01 10° NNE
Cosmos 220 Rocket 3.7 02:53:36 59° SSW 02:54:21 87° WNW 02:58:31 10° NNE
COSMO-SKYMED 1 2.4 02:52:29 10° S 02:56:20 61° WSW 02:56:20 61° WSW
Cosmos 1763 Rocket 4.4 03:02:16 30° NNW 03:02:16 30° NNW 03:06:12 10° NNE
RESURS DK-1 4.0 03:10:24 19° N 03:10:24 19° N 03:12:23 10° NNE
Cosmos 2333 4.1 03:07:20 29° NW 03:10:25 78° WSW 03:16:06 10° SSE
Meteor 1-26 Rocket 4.1 03:06:52 18° NNW 03:10:58 64° W 03:16:33 10° S
Meteor 2-20 Rocket 4.2 03:05:17 10° NNW 03:11:04 73° W 03:16:45 10° S
Cosmos 1812 Rocket 4.4 03:07:01 10° N 03:11:13 48° ENE 03:15:25 10° SSE
NOSS 3-1 (A) 4.2 03:09:51 31° WNW 03:13:08 52° SW 03:21:23 10° SSE
Cosmos 1833 Rocket 3.8 03:13:28 26° NW 03:13:56 26° NNW 03:18:39 10° NNE
Meteor 2-3 Rocket 3.6 03:08:20 10° SSW 03:14:02 70° WNW 03:19:43 10° NNE
IGS 5A 4.2 03:10:53 10° NNE 03:14:48 51° E 03:18:43 10° S
Cosmos 2058 Rocket 3.2 03:17:29 35° NW 03:18:58 50° W 03:23:13 10° S
Cosmos 1484 Rocket 2.9 03:16:38 10° NNE 03:20:03 63° ESE 03:23:25 10° S
COSMOS 2406 3.1 03:14:31 10° SW 03:20:12 77° NW 03:25:55 10° NNE
SL-16 R/B 2.8 03:19:10 32° W 03:20:16 34° WSW 03:25:19 10° S
Cosmos 1437 Rocket 3.5 03:20:38 14° N 03:23:24 45° ENE 03:26:44 10° SE
COSMOS 2428 3.4 03:19:18 17° NNW 03:23:39 52° NE 03:29:13 10° ESE
USA 234 3.2 03:17:54 10° E 03:24:29 83° N 03:28:36 25° WNW
CZ-4 R/B 3.7 03:21:27 10° N 03:26:01 58° WNW 03:30:34 10° SW
Cosmos 2082 Rocket 2.4 03:23:08 25° WSW 03:26:06 48° NW 03:31:34 10° NNE
Cosmos 1627 Rocket 4.4 03:20:19 10° SSW 03:26:25 70° WNW 03:32:35 10° N
SeaSat 1 3.4 03:23:05 10° NNE 03:27:13 28° NW 03:27:52 27° NW
ATLAS 5 CENTAUR R/B 2.1 03:31:10 26° NNW 03:31:30 27° N 03:34:49 10° NE
IRIDIUM 104 4.4 03:27:31 10° S 03:32:45 83° E 03:38:00 10° N
NOAA 12 4.2 03:29:12 10° N 03:34:22 54° WNW 03:39:29 10° SW
CZ-2C R/B 3.7 03:30:51 10° N 03:34:03 22° NW 03:34:03 22° NW
Cosmos 1743 3.4 03:32:46 10° S 03:35:53 46° E 03:39:02 10° NNE
Cosmos 2285 Rocket 4.1 03:32:11 17° NW 03:37:09 59° WSW 03:43:24 10° S
Okean 1 3.6 03:37:08 34° W 03:37:14 34° W 03:40:28 10° SSW
USA 229 4.0 03:32:41 21° NW 03:37:52 80° NE 03:45:51 10° ESE
USA 229 DEB 4.0 03:32:47 21° NW 03:37:57 80° NE 03:45:56 10° ESE
Cosmos 1814 Rocket 4.4 03:33:24 10° SSW 03:38:36 69° ESE 03:43:54 10° NNE
CBERS-1 4.3 03:33:59 10° NNE 03:39:07 73° ESE 03:44:12 10° S
IRIDIUM 114 4.3 03:36:39 10° S 03:41:53 85° W 03:47:09 10° N
Helios 1A Rocket 4.4 03:41:19 10° SW 03:42:22 15° SW 03:42:22 15° SW
IRIDIUM 103 4.2 03:45:51 10° SSW 03:51:04 73° W 03:56:19 10° N
Cosmos 2026 Rocket 4.1 03:46:01 10° SW 03:51:50 47° WNW 03:57:46 10° N
Cosmos 2315 Rocket 4.3 03:46:11 10° N 03:52:35 71° ENE 03:58:53 10° SSE
SL-4 R/B 3.4 03:54:50 15° WSW 03:56:13 18° SSW 03:58:30 10° SSE
Thor Agena Rocket 3.8 03:52:00 10° NNE 03:57:06 72° ESE 04:02:07 10° S
Cosmos 2151 3.2 03:53:16 10° S 03:57:19 68° E 04:01:26 10° NNE
Cosmos 2221 2.3 03:53:23 10° NNW 03:57:31 65° W 04:01:37 10° S
Cosmos 1758 Rocket 3.5 03:53:50 10° SSW 03:58:15 78° WNW 04:02:40 10° N
CZ-2D R/B 3.4 03:57:13 10° NNE 04:00:23 57° ESE 04:03:30 10° S
SL-16 R/B 3.8 03:56:17 10° NNW 04:01:00 26° NNE 04:05:41 10° E
Meteor 2-4 Rocket 4.4 03:57:42 10° N 04:02:59 53° ENE 04:08:19 10° SE
Cosmos 1238 Rocket 2.3 04:02:24 10° N 04:05:18 65° ENE 04:08:07 10° SSE
Cosmos 841 Rocket 4.2 04:00:58 10° WSW 04:05:41 33° NW 04:10:26 10° NNE
IRIDIUM 106 4.4 04:04:21 10° SSW 04:09:27 55° W 04:14:36 10° N
S3M 3.9 04:03:36 10° NNW 04:09:50 77° W 04:15:57 10° S
Cosmos 158 Rocket 4.0 04:05:50 10° SSW 04:11:10 85° WNW 04:16:24 10° NNE
Cosmos 1553 Rocket 4.4 04:05:18 10° NNW 04:11:15 43° W 04:17:12 10° SSW
Cosmos 1980 4.3 04:06:01 10° NNW 04:11:38 55° NE 04:17:13 10° SE
Cosmos 1707 2.2 04:09:02 11° NNW 04:12:04 59° W 04:15:09 10° S
Cosmos 405 Rocket 2.5 04:09:08 10° SW 04:12:17 46° WNW 04:15:29 10° N
Cosmos 2360 Rocket 3.2 04:09:27 15° WNW 04:12:53 27° WSW 04:17:32 10° SSW
Cosmos 2333 Rocket 3.6 04:11:00 15° WNW 04:13:36 20° W 04:17:40 10° SSW
KORONAS-FOTON 3.6 04:15:20 10° NNW 04:18:38 51° W 04:21:55 10° S
Cosmos 1092 Rocket 4.4 04:13:02 10° SW 04:18:49 38° WNW 04:24:34 10° N
SMAP 3.0 04:14:48 10° NNE 04:19:29 78° WNW 04:24:09 10° SSW
Cosmos 1833 4.3 04:15:11 10° SSW 04:20:51 86° ESE 04:26:37 10° NE
Cosmos 1626 Rocket 3.9 04:17:10 10° SW 04:21:24 44° WNW 04:25:37 10° N
ATLAS 3B R/B 3.1 04:14:24 12° NW 04:21:45 79° SW 04:29:20 10° SE
Cosmos 2237 Rocket 2.6 04:18:40 10° NNW 04:24:16 60° NE 04:29:50 10° SE
Cosmos 2298 Rocket 4.1 04:18:59 10° NNW 04:24:21 83° ENE 04:29:40 10° SSE
Landsat 7 3.7 04:20:07 10° NNE 04:24:49 82° WNW 04:29:28 10° SSW
Resurs 01 Rocket 4.4 04:21:56 10° NE 04:25:09 20° E 04:28:21 10° SE
SL-08 R/B 3.3 04:21:08 10° SSE 04:25:45 84° WSW 04:30:30 10° NNW
Meteor 1-10 Rocket 4.4 04:20:29 10° NNW 04:26:15 58° W 04:32:04 10° S
Cosmos 1125 Rocket 3.9 04:21:33 10° NW 04:26:32 43° WSW 04:31:27 10° S
NOSS 3-4 (A) 4.1 04:23:03 13° WNW 04:28:12 43° N 04:34:47 10° ENE
NOSS 3-4 (C) 4.1 04:23:12 13° WNW 04:28:21 43° N 04:34:56 10° ENE
Cosmos 1842 2.9 04:26:22 10° NNW 04:29:39 54° W 04:32:54 10° S
Cosmos 2219 Rocket 3.0 04:25:49 11° NW 04:30:33 32° WSW 04:35:27 10° SSW
NOSS 0 Rocket 4.0 04:26:15 10° NW 04:32:30 83° SW 04:38:44 10° SSE
NOSS 5 (C) 4.4 04:31:14 12° NW 04:34:36 85° NE 04:37:53 10° SE
Cosmos 2322 Rocket 3.7 04:32:25 11° WNW 04:35:52 18° W 04:39:32 10° SW
Cosmos 1842 Rocket 3.7 04:33:13 10° N 04:37:33 75° ENE 04:41:51 10° SSE
Cosmos 2322 4.0 04:40:13 10° NW 04:45:42 52° WSW 04:51:10 10° S
RESURS DK-1 4.4 04:46:40 10° NNW 04:48:03 11° N 04:49:26 10° NNE
IGS 5A 4.4 04:46:10 10° N 04:49:25 24° WNW 04:52:40 10° WSW
Cosmos 2266 Rocket 4.1 04:43:47 10° SSW 04:50:04 60° WNW 04:56:19 10° N
Okean 1-7 Rocket 3.7 04:46:21 10° SSW 04:50:46 56° WNW 04:55:12 10° N
ATLAS 2AS CENTAUR R/B 3.1 04:43:54 10° SW 04:50:52 72° SE 04:57:41 10° NE
YAOGAN 11 4.3 04:46:56 10° S 04:51:10 51° W 04:55:22 10° NNW
Cosmos 1484 Rocket 4.0 04:50:22 10° NNW 04:52:34 16° WNW 04:54:45 10° W
CZ-4 R/B 4.3 04:49:01 10° NNE 04:53:00 85° WNW 04:56:58 10° SSW
SJ-12 4.0 04:51:24 10° N 04:55:04 45° WNW 04:58:42 10° SW
Cosmos 1818 3.7 04:52:29 10° NW 04:57:59 86° NE 05:03:26 10° SE
Cosmos 1437 Rocket 4.0 04:55:33 10° NW 04:58:00 18° W 05:00:27 10° SW
ARIANE 5 R/B 2.6 04:53:25 10° NNE 04:58:33 59° WNW 05:03:40 10° SW
Cosmos 1833 Rocket 4.4 04:56:11 10° NW 04:59:51 17° N 05:03:31 10° NE
Cosmos 1602 Rocket 4.2 04:55:53 10° SW 04:59:58 35° WNW 05:04:05 10° N
